TimeEST,TemperatureF,Dew PointF,Humidity,Sea Level PressureIn,VisibilityMPH,Wind Direction,Wind SpeedMPH,Gust SpeedMPH,PrecipitationIn,Events,Conditions,WindDirDegrees,DateUTC
12:53 AM,72.0,69.1,91,29.91,10.0,SW,11.5,-,N/A,,Mostly Cloudy,230,2014-01-03 05:53:00
1:53 AM,72.0,68.0,87,29.89,10.0,WSW,5.8,-,N/A,,Scattered Clouds,240,2014-01-03 06:53:00
2:53 AM,71.1,66.0,84,29.90,10.0,WNW,15.0,-,N/A,,Mostly Cloudy,290,2014-01-03 07:53:00
3:01 AM,71.6,66.2,83,29.91,10.0,WNW,12.7,-,N/A,,Mostly Cloudy,290,2014-01-03 08:01:00
3:25 AM,71.6,64.4,78,29.92,10.0,WNW,15.0,-,N/A,,Overcast,290,2014-01-03 08:25:00
3:53 AM,68.0,60.1,76,29.93,10.0,NW,20.7,27.6,0.00,,Overcast,320,2014-01-03 08:53:00
4:09 AM,68.0,59.0,73,29.94,10.0,NW,18.4,-,N/A,,Overcast,320,2014-01-03 09:09:00
4:53 AM,66.0,59.0,78,29.96,10.0,NW,17.3,23.0,N/A,,Overcast,320,2014-01-03 09:53:00
5:28 AM,64.4,55.4,73,29.98,10.0,NW,16.1,23.0,N/A,,Overcast,320,2014-01-03 10:28:00
5:53 AM,62.1,54.0,75,29.99,10.0,NNW,15.0,23.0,N/A,,Overcast,340,2014-01-03 10:53:00
6:00 AM,62.6,53.6,72,30.00,10.0,NNW,11.5,23.0,N/A,,Mostly Cloudy,340,2014-01-03 11:00:00
6:53 AM,59.0,48.0,67,30.04,10.0,NW,15.0,-,N/A,,Overcast,320,2014-01-03 11:53:00
7:53 AM,59.0,45.0,60,30.06,10.0,NNW,13.8,-,N/A,,Mostly Cloudy,330,2014-01-03 12:53:00
8:53 AM,57.9,44.1,60,30.09,10.0,NW,16.1,-,N/A,,Mostly Cloudy,320,2014-01-03 13:53:00
9:53 AM,61.0,44.1,54,30.12,10.0,NNW,13.8,-,N/A,,Mostly Cloudy,330,2014-01-03 14:53:00
10:53 AM,62.1,45.0,53,30.11,10.0,North,16.1,25.3,N/A,,Mostly Cloudy,360,2014-01-03 15:53:00
11:53 AM,64.9,46.9,52,30.10,10.0,North,18.4,28.8,N/A,,Mostly Cloudy,360,2014-01-03 16:53:00
12:53 PM,64.9,46.9,52,30.09,10.0,North,23.0,29.9,N/A,,Mostly Cloudy,350,2014-01-03 17:53:00
1:53 PM,64.0,48.9,58,30.09,10.0,North,17.3,25.3,N/A,,Mostly Cloudy,350,2014-01-03 18:53:00
2:31 PM,64.4,50.0,59,30.09,10.0,North,17.3,24.2,N/A,,Mostly Cloudy,350,2014-01-03 19:31:00
2:47 PM,66.2,50.0,56,30.09,10.0,North,20.7,27.6,N/A,,Mostly Cloudy,350,2014-01-03 19:47:00
2:53 PM,64.0,50.0,60,30.09,10.0,North,15.0,27.6,N/A,,Mostly Cloudy,360,2014-01-03 19:53:00
3:53 PM,64.0,50.0,60,30.12,10.0,NNW,16.1,-,N/A,,Mostly Cloudy,340,2014-01-03 20:53:00
4:53 PM,64.9,51.1,61,30.12,10.0,North,15.0,23.0,N/A,,Mostly Cloudy,360,2014-01-03 21:53:00
5:53 PM,64.9,50.0,58,30.14,10.0,North,12.7,19.6,N/A,,Mostly Cloudy,360,2014-01-03 22:53:00
6:53 PM,62.1,52.0,70,30.16,10.0,NNW,8.1,-,N/A,,Mostly Cloudy,340,2014-01-03 23:53:00
7:53 PM,60.1,51.1,72,30.16,10.0,NNW,8.1,-,N/A,,Mostly Cloudy,330,2014-01-04 00:53:00
8:40 PM,66.2,51.8,60,30.16,10.0,NE,13.8,21.9,N/A,,Mostly Cloudy,50,2014-01-04 01:40:00
8:53 PM,66.9,50.0,54,30.17,10.0,NE,13.8,-,N/A,,Mostly Cloudy,50,2014-01-04 01:53:00
9:46 PM,66.2,51.8,60,30.19,10.0,NE,15.0,-,N/A,,Mostly Cloudy,40,2014-01-04 02:46:00
9:53 PM,66.9,51.1,57,30.19,10.0,NE,11.5,-,N/A,,Mostly Cloudy,40,2014-01-04 02:53:00
10:53 PM,66.9,51.1,57,30.17,10.0,NE,10.4,17.3,N/A,,Scattered Clouds,50,2014-01-04 03:53:00
11:53 PM,68.0,53.1,59,30.17,10.0,ENE,13.8,-,N/A,,Mostly Cloudy,70,2014-01-04 04:53:00